Hourly Data Report for August 09, 2002

SHERBROOKE A
QUEBEC

45°26'00.000" N
71°41'00.000" W
241.40 m
7028124
71610
YSC

Download Data

Hourly Data (August 2002)
Hourly Data Report for August 9, 2002
TIME
LST
Temp Definition
°C
Dew Point Definition
°C
Rel Hum Definition
%
Precip. Amount Definition
mm

Wind Dir Definition
10's deg

Wind Spd Definition
km/h
Visibility Definition
km
Stn Press Definition
kPa
Hmdx Definition


Wind Chill Definition


Weather Definition


00:00 9.1 8.6 97   5 4 15.0 99.27      
01:00 8.0 7.8 99     0 15.0 99.28      
02:00 6.9 6.5 97     0 2.4 99.28      
03:00 6.8 6.4 97     0 15.0 99.27      
04:00 6.1 5.5 96     0 15.0 99.30      
05:00 6.4 6.2 99   10 4 15.0 99.34      
06:00 10.4 9.8 96     0 15.0 99.39      
07:00 13.1 11.6 91     0 24.1 99.44     Clear
08:00 16.5 12.4 77   20 7 24.1 99.44     Clear
09:00 18.8 12.7 68   26 6 24.1 99.41     Clear
10:00 21.5 13.7 61   27 9 24.1 99.42 25   Clear
11:00 22.8 13.6 56   25 13 24.1 99.35 26   Mainly Clear
12:00 24.2 14.1 53   27 13 24.1 99.32 28   Mainly Clear
13:00 24.6 13.1 49   27 15 24.1 99.26 27   Mainly Clear
14:00 24.6 11.6 44   30 15 24.1 99.23 27   Mainly Clear
15:00 24.9 12.6 46   29 11 24.1 99.19 27   Mainly Clear
16:00 23.6 12.8 51   29 13 24.1 99.18 26   Mostly Cloudy
17:00 22.9 14.0 57   30 7 15.0 99.18 26    
18:00 20.9 14.4 66   25 6 15.0 99.17 25    
19:00 18.2 14.7 80   22 6 15.0 99.16      
20:00 18.3 13.8 75   20 7 15.0 99.17      
21:00 17.3 13.2 77   21 7 15.0 99.17      
22:00 15.4 13.4 88     0 15.0 99.16      
23:00 14.8 13.5 92     0 15.0 99.15      

Notes on Data Quality.

Legend

  • E = Estimated
  • M = Missing
  • NA = Not Available*
  • [empty] = Indicates an unobserved value
Date modified: